Location: Nora Junction
(43.1400°N, 93.0163°W)
Time: 01:52:59
(UTC+00:00)

USA 215 - Pass Details

Date: 18 November 2025
Orbit: 1101 x 1106 km, 123.0° (Epoch: 02 December)

Event Time Altitude Azimuth Distance (km) Brightness Sun altitude
Rises 23:09:35 0° 112° (ESE) 3,915 5.7 -4.9°
Reaches altitude 10° 23:12:06 10° 108° (ESE) 2,960 5.1 -5.3°
Maximum altitude 23:18:28 57° 32° (NNE) 1,281 3.4 -6.4°
Drops below altitude 10° 23:24:51 10° 316° (NW) 2,972 5.9 -7.5°
Sets 23:27:23 0° 312° (NW) 3,932 6.6 -7.9°
